Tracking 30746 objects as of 20-Jun-2025
HD Live streaming from Space Station
objects crossing your sky now

ONEWEB-0532

Track ONEWEB-0532 now!
10-day predictions
ONEWEB-0532 is classified as:


NORAD ID: 55140
Int'l Code: 2023-004A
Perigee: 1,199.4 km
Apogee: 1,202.3 km
Inclination: 87.9 °
Period: 109.3 minutes
Semi major axis: 7571 km
RCS: Unknown
Launch date: January 10, 2023
Source: United Kingdom (UK)
Launch site: AIR FORCE WESTERN TEST RANGE (AFWTR)
Your satellite tracking list
Your tracking list is empty




NASA's NSSDC Master Catalog

Two Line Element Set (TLE):
1 55140U 23004A   25170.43813005  .00000063  00000-0  12974-3 0  9998
2 55140  87.9071  78.0781 0001965  64.9397 295.1938 13.17651267119815
Source of the keplerian elements: AFSPC